Regional Weather Roundup
Issued by NWS

Home | Current Version | Previous Version | Text Only | Print | Product List | Glossary On
Versions: 1 2 3 4 5 6 7 8 9 10 11 12 13 14 15 16 17 18 19 20 21 22 23 24 25 26 27
000
ASUS44 KLIX 200013
RWRLA
LOUISIANA WEATHER ROUNDUP
NATIONAL WEATHER SERVICE NEW ORLEANS LA
600 PM CST SUN FEB 19 2017

NOTE: "FAIR" INDICATES FEW OR NO CLOUDS BELOW 12,000 FEET WITH NO
      SIGNIFICANT WEATHER AND/OR OBSTRUCTIONS TO VISIBILITY.
      SKY/WX - SKY CONDITION AND SIGNIFICANT WEATHER.
      TMP - AIR TEMPERATURE.    DP   - DEWPOINT TEMPERATURE.
      RH  - RELATIVE HUMIDITY.  PRES - PRESSURE.
      HX  - HEAT INDEX.         WCI  - WIND CHILL INDEX.

*  THESE STATIONS ARE NOT NWS OR FAA STATIONS AND ARE NOT UNDER
   NWS QUALITY CONTROL.

LAZ040-048-061>063-065-066-069-200100-
SOUTHEAST LOUISIANA

CITY           SKY/WX    TMP DP  RH WIND       PRES   REMARKS
N.O. AUDUBON   NOT AVBL
N.O. INTL ARPT MOCLDY    71  65  81 SE12      30.02F
6HR MIN TEMP:  71; 6HR MAX TEMP:  78;

N.O. LAKEFRONT CLEAR     70  64  81 E10       30.04S
6HR MIN TEMP:  70; 6HR MAX TEMP:  77;

N.O. DOWNTOWN*   N/A     71  64  78 SE5       30.04S
6HR MIN TEMP:  71; 6HR MAX TEMP:  78;

RESERVE*       FAIR      72  65  79 E5        30.02S
6HR MIN TEMP:  68; 6HR MAX TEMP:  79;

SLIDELL        CLEAR     69  60  73 S8        30.04R
6HR MIN TEMP:  69; 6HR MAX TEMP:  82;

BATON ROUGE    CLEAR     73  63  70 SE8       30.01R
6HR MIN TEMP:  68; 6HR MAX TEMP:  80;

BOOTHVILLE     CLEAR     66  66 100 E7        30.05S
6HR MIN TEMP:  66; 6HR MAX TEMP:  70;

BELLE CHASSE   PTCLDY    69  65  86 E9        30.03S
6HR MIN TEMP:  69; 6HR MAX TEMP:  77;

BOGALUSA*      FAIR      78  49  36 S7        30.04S
6HR MIN TEMP:  77; 6HR MAX TEMP:  85;

GALLIANO*      CLOUDY    70  65  83 E6        30.03F
6HR MIN TEMP:  69; 6HR MAX TEMP:  75;

NEW ROADS*     FAIR      71  63  75 S6        30.01R
6HR MIN TEMP:  63; 6HR MAX TEMP:  76;

GONZALES*      FAIR      73  65  76 SE3       30.01R
6HR MIN TEMP:  65; 6HR MAX TEMP:  77;

HAMMOND*       CLEAR     70  57  64 SE6       30.02F
HOUMA*         PTCLDY    70  66  88 SE9       30.02S
PORT FOURCHON* CLOUDY    70  66  88 E13       30.02F

$$

LAZ041-044-053-054-200100-
SOUTHWEST LOUISIANA

CITY           SKY/WX    TMP DP  RH WIND       PRES   REMARKS
LAKE CHARLES   PTCLDY    73  67  81 E13       29.95F
6HR MIN TEMP:  72; 6HR MAX TEMP:  80;

LAFAYETTE      PTCLDY    78  66  66 VRB3      29.99R
6HR MIN TEMP:  73; 6HR MAX TEMP:  81;

PATTERSON      MOCLDY    72  68  87 SE8       30.02R
6HR MIN TEMP:  72; 6HR MAX TEMP:  79;

SALT POINT       N/A     71  67  87 SE9       30.00R
6HR MIN TEMP:  71; 6HR MAX TEMP:  77;

NEW IBERIA     CLEAR     74  66  76 S9        30.00R
6HR MIN TEMP:  73; 6HR MAX TEMP:  81;

CHENAULT AIRPK MOCLDY    72  68  88 SE10      29.97S

$$

LAZ027-028-200100-
CENTRAL LOUISIANA

CITY           SKY/WX    TMP DP  RH WIND       PRES   REMARKS
FORT POLK      PTCLDY    73  67  81 SE10      29.96R
6HR MIN TEMP:  73; 6HR MAX TEMP:  79;

ALEXANDRIA INT CLEAR     71  62  73 SE7       29.97R
6HR MIN TEMP:  70; 6HR MAX TEMP:  75;

ALEXANDRIA     CLEAR     71  61  70 E3        29.99R
6HR MIN TEMP:  71; 6HR MAX TEMP:  79;


$$

LAZ001-002-200100-
NORTHWEST LOUISIANA

CITY           SKY/WX    TMP DP  RH WIND       PRES   REMARKS
SHREVEPORT     CLEAR     77  56  48 SE8       29.93S
6HR MIN TEMP:  69; 6HR MAX TEMP:  82;

BARKSDALE AFB  CLEAR     75  55  50 SE9       29.94S
6HR MIN TEMP:  67; 6HR MAX TEMP:  80;

DTN SHREVEPORT CLEAR     77  54  44 SE13      29.93F
6HR MIN TEMP:  67; 6HR MAX TEMP:  80;


$$

LAZ014-016-200100-
NORTHEAST LOUISIANA

CITY           SKY/WX    TMP DP  RH WIND       PRES   REMARKS
MONROE         CLEAR     75  49  39 E3        30.00R
6HR MIN TEMP:  68; 6HR MAX TEMP:  80;

TALLULAH       CLEAR     72  46  39 SE7       30.00R
6HR MIN TEMP:  72; 6HR MAX TEMP:  84;


$$





USA.gov is the U.S. government's official web portal to all federal, state and local government web resources and services.